Change the Weather History Date:

Thursday, December 6, 2012

  Actual Average Record
Temperature  
Mean Temperature 27 °F -  
Max Temperature 35 °F 24 °F 50 °F (1939)
Min Temperature 19 °F 4 °F -18 °F (1975)
Degree Days  
Heating Degree Days 38    
Moisture  
Dew Point 20 °F    
Average Humidity 78    
Maximum Humidity 92    
Minimum Humidity 67    
Precipitation  
Precipitation 0.00 in - - ()
Sea Level Pressure  
Sea Level Pressure 29.78 in    
Wind  
Wind Speed 10 mph (West)    
Max Wind Speed 15 mph    
Max Gust Speed 23 mph    
Visibility 10 miles    
Events      
Averages and records for this station are not official NWS values.
T = Trace of Precipitation, MM = Missing Value Source: NWS Daily Summary

Daily Weather History Graph

Daily Weather History Graph

Search for Another Location

Airport or City:

Trip Planner

Search our weather history database for the weather conditions in past years. The results will help you decide how hot, cold, wet, or windy it might be!

Date:

Astronomy

Dec. 06, 2012 Rise Set
Actual Time 7:56 AM CST 4:22 PM CST
Civil Twilight 7:20 AM CST 4:59 PM CST
Nautical Twilight 6:40 AM CST 5:39 PM CST
Astronomical Twilight 6:01 AM CST 6:17 PM CST
Moon No Moon Rise 12:20 PM CST (12/6)
Length of Visible Light 9h 39m
Length of Day
8h 26m
Waning Gibbous, 49% of the Moon is Illuminated
Dec 6
Waning Gibbous
Dec 13
New
Dec 19
First Quarter
Dec 28
Full
Jan 4
Last Quarter

Hourly Weather History & Observations

Time (CST) Temp. Windchill Dew Point Humidity Pressure Visibility Wind Dir Wind Speed Gust Speed Precip Events Conditions
12:53 AM 34.0 °F 24.2 °F 24.1 °F 67% 29.62 in 10.0 mi South 15.0 mph - 0.00 in   Overcast
1:53 AM 35.1 °F 25.5 °F 26.1 °F 70% 29.60 in 10.0 mi SSW 15.0 mph 21.9 mph N/A   Overcast
2:53 AM 35.1 °F 25.9 °F 26.1 °F 70% 29.60 in 10.0 mi SSW 13.8 mph 23.0 mph N/A   Clear
3:53 AM 30.9 °F 22.2 °F 26.1 °F 82% 29.60 in 10.0 mi SW 10.4 mph - N/A   Partly Cloudy
4:08 AM 33.8 °F 25.3 °F 26.6 °F 75% 29.56 in 10.0 mi SW 11.5 mph - N/A   Mostly Cloudy
4:53 AM 35.1 °F 29.3 °F 28.0 °F 76% 29.62 in 10.0 mi Variable 6.9 mph 16.1 mph N/A   Overcast
5:53 AM 35.1 °F 30.1 °F 30.0 °F 82% 29.63 in 10.0 mi Variable 5.8 mph - N/A   Overcast
6:50 AM 33.8 °F 28.6 °F 30.2 °F 87% 29.61 in 6.0 mi Variable 5.8 mph 16.1 mph N/A   Overcast
6:53 AM 33.1 °F 26.9 °F 30.9 °F 92% 29.66 in 6.0 mi Variable 6.9 mph 16.1 mph N/A   Overcast
7:53 AM 30.9 °F 21.7 °F 28.0 °F 89% 29.70 in 10.0 mi WNW 11.5 mph 21.9 mph N/A   Overcast
8:53 AM 28.9 °F 20.4 °F 25.0 °F 85% 29.73 in 10.0 mi WNW 9.2 mph 17.3 mph N/A   Overcast
9:53 AM 28.0 °F 20.0 °F 21.9 °F 78% 29.76 in 10.0 mi WNW 8.1 mph 20.7 mph N/A   Overcast
10:53 AM 25.0 °F 15.5 °F 19.9 °F 81% 29.81 in 10.0 mi West 9.2 mph 18.4 mph N/A   Overcast
11:50 AM 24.8 °F 15.3 °F 17.6 °F 74% 29.78 in 10.0 mi WNW 9.2 mph - N/A   Overcast
11:53 AM 24.1 °F 13.7 °F 18.0 °F 77% 29.83 in 10.0 mi WNW 10.4 mph 17.3 mph N/A   Overcast
12:19 PM 23.0 °F 13.9 °F 17.6 °F 80% 29.78 in 10.0 mi WNW 8.1 mph - N/A   Overcast
12:53 PM 23.0 °F 11.1 °F 17.1 °F 78% 29.85 in 10.0 mi NW 12.7 mph 18.4 mph N/A   Overcast
1:53 PM 21.9 °F 14.5 °F 16.0 °F 78% 29.86 in 10.0 mi Variable 5.8 mph - N/A   Overcast
2:53 PM 21.9 °F 13.4 °F 14.0 °F 72% 29.88 in 10.0 mi Variable 6.9 mph - N/A   Overcast
3:53 PM 21.9 °F 13.4 °F 14.0 °F 72% 29.90 in 10.0 mi Variable 6.9 mph - N/A   Overcast
4:53 PM 21.9 °F 13.4 °F 15.1 °F 75% 29.91 in 10.0 mi West 6.9 mph - N/A   Overcast
5:53 PM 21.9 °F 12.5 °F 16.0 °F 78% 29.91 in 10.0 mi West 8.1 mph - N/A   Overcast
6:53 PM 21.2 °F 12.6 °F 14.0 °F 74% 29.88 in 10.0 mi Variable 6.9 mph - N/A   Overcast
7:53 PM 19.9 °F 12.1 °F 12.9 °F 74% 29.95 in 10.0 mi WNW 5.8 mph - N/A   Overcast
8:53 PM 19.9 °F 8.6 °F 14.0 °F 78% 29.95 in 9.0 mi WNW 10.4 mph - 0.00 in   Overcast
9:53 PM 19.9 °F 12.1 °F 12.9 °F 74% 29.96 in 10.0 mi WNW 5.8 mph - N/A   Overcast
10:53 PM 19.9 °F 14.9 °F 14.0 °F 78% 29.98 in 9.0 mi Variable 3.5 mph - N/A   Overcast
11:53 PM 19.9 °F 10.1 °F 15.1 °F 81% 29.98 in 9.0 mi NW 8.1 mph - 0.00 in   Overcast